Content
SEND FEEDBACK

Daily
Averages
Monthly
Summary
United States of America

ACHANG BAY, GUAM


Home > North America > United States > Guam
Elevation: 30 feet     Latitude: 13 16N     Longitude: 144 45E

WEATHER
 
SELECT A DAY
Number of Records: 357,395;   Date Range: 1/1/95 - 12/27/14
 
SHARE

PRINT THIS DATA

[ ← Previous Day ]
WEATHER ALMANAC - FEBRUARY 26, 2013
[ Next Day → ]
[ °C ]   °F
Weather ElementAverageHighLow
Temperature77.4 °F84.2 °F (11:50 am)73.4 °F (6:37 pm)
Dewpoint72.2 °F75.2 °F (12:11 pm)69.8 °F (5:43 pm)
Humidity84 %94 % (2:31 am)66 % (11:50 am)
Barometer29.85 in29.90 in (9:55 am)29.79 in (3:55 pm)
Wind Speed18.3 mph27.6 mph (6:18 pm)
Wind Gust35.7 mph (8:53 pm)
Weather ElementAverage
Visibility9.4 mi
Wind DirectionENE (56.6 °)

Weather ElementTotal
Precipitation---
Cooling Degree Days13.8 (Base 65)
Growing Degree Days28.8 (Base 50)
Averaged from 128 records on February 26, 2013
WEATHER CONDITIONS BREAKOUT
WIND DIRECTION BREAKOUT
WEATHER BY HOUR - FEBRUARY 26, 2013
[ °C ]   °F
Local TimeTemperatureDewpointHumidityBarometerVisibilityWind DirectionWind SpeedGust SpeedPrecipitationEventsConditions
12:55 AM77.5 °F70.7 °F79 %29.89 in10.0 miNE (50°)18.4 mphMostly Cloudy
1:00 AM77.0 °F71.6 °F83 %29.88 in10.0 miNE (40°)19.6 mphScattered Clouds
1:11 AM77.0 °F71.6 °F83 %29.88 in10.0 miNE (40°)15.0 mphMostly Cloudy
1:14 AM77.0 °F71.6 °F83 %29.88 in10.0 miNE (40°)16.1 mphScattered Clouds
1:16 AM77.0 °F71.6 °F83 %29.88 in10.0 miNE (40°)16.1 mphMostly Cloudy
1:17 AM77.0 °F71.6 °F83 %29.88 in10.0 miNE (40°)15.0 mphScattered Clouds
1:18 AM77.0 °F71.6 °F83 %29.88 in10.0 miNE (40°)16.1 mphMostly Cloudy
1:22 AM77.0 °F73.4 °F89 %29.88 in10.0 miNNE (30°)17.3 mphMostly Cloudy
1:32 AM77.0 °F71.6 °F83 %29.87 in10.0 miNE (40°)18.4 mphMostly Cloudy
1:50 AM77.0 °F71.6 °F83 %29.87 in10.0 miNNE (30°)19.6 mphMostly Cloudy
1:55 AM77.5 °F72.3 °F84 %29.87 in10.0 miNNE (30°)16.1 mphMostly Cloudy
1:59 AM77.0 °F73.4 °F89 %29.86 in10.0 miNE (40°)15.0 mphMostly Cloudy
2:00 AM77.0 °F73.4 °F89 %29.86 in10.0 miNE (40°)18.4 mph24.2 mphMostly Cloudy
2:06 AM77.0 °F73.4 °F89 %29.86 in10.0 miNNE (30°)18.4 mph24.2 mphRainLight Rain
2:16 AM77.0 °F73.4 °F89 %29.85 in10.0 miNNE (30°)13.8 mphMostly Cloudy
2:20 AM77.0 °F73.4 °F89 %29.85 in10.0 miNNE (30°)19.6 mph25.3 mphMostly Cloudy
2:23 AM77.0 °F73.4 °F89 %29.85 in10.0 miNNE (30°)21.9 mph29.9 mphRainRain
2:31 AM75.2 °F73.4 °F94 %29.85 in9.0 miNE (40°)19.6 mph29.9 mphRainLight Rain
2:33 AM75.2 °F73.4 °F94 %29.85 in9.0 miNE (50°)18.4 mphRainLight Rain
2:34 AM75.2 °F73.4 °F94 %29.85 in10.0 miNE (50°)17.3 mphRainLight Rain
2:36 AM75.2 °F73.4 °F94 %29.86 in10.0 miNE (40°)20.7 mphMostly Cloudy
2:37 AM75.2 °F73.4 °F94 %29.86 in10.0 miNE (40°)20.7 mphMostly Cloudy
2:42 AM75.2 °F71.6 °F89 %29.85 in10.0 miNE (40°)18.4 mphMostly Cloudy
2:50 AM75.2 °F73.4 °F94 %29.85 in10.0 miNE (40°)16.1 mphMostly Cloudy
2:54 AM75.2 °F73.4 °F94 %29.85 in10.0 miNE (40°)18.4 mphLight Drizzle
2:55 AM75.7 °F73.4 °F92 %29.85 in10.0 miNE (40°)18.4 mph0.00 inLight Drizzle
2:56 AM75.2 °F73.4 °F94 %29.85 in10.0 miNNE (30°)19.6 mphLight Drizzle
3:03 AM75.2 °F73.4 °F94 %29.85 in10.0 miNE (40°)19.6 mphMostly Cloudy
3:25 AM77.0 °F73.4 °F89 %29.84 in10.0 miNE (50°)17.3 mphMostly Cloudy
3:40 AM77.0 °F71.6 °F83 %29.84 in10.0 miNE (50°)19.6 mphMostly Cloudy
3:50 AM77.0 °F71.6 °F83 %29.84 in10.0 miNE (50°)15.0 mphMostly Cloudy
3:55 AM76.5 °F71.2 °F84 %29.84 in10.0 miNE (50°)17.3 mph0.00 inMostly Cloudy
4:55 AM76.8 °F71.6 °F84 %29.83 in10.0 miNE (50°)18.4 mphMostly Cloudy
5:03 AM77.0 °F71.6 °F83 %29.83 in10.0 miNE (50°)19.6 mphMostly Cloudy
5:05 AM77.0 °F71.6 °F83 %29.83 in10.0 miNE (40°)16.1 mphMostly Cloudy
5:07 AM77.0 °F71.6 °F83 %29.83 in10.0 miNE (50°)17.3 mphMostly Cloudy
5:09 AM77.0 °F71.6 °F83 %29.83 in10.0 miNE (50°)18.4 mphMostly Cloudy
5:24 AM77.0 °F71.6 °F83 %29.83 in10.0 miNE (40°)19.6 mphMostly Cloudy
5:53 AM77.0 °F71.6 °F83 %29.83 in10.0 miNE (40°)19.6 mphMostly Cloudy
5:55 AM76.8 °F72.0 °F85 %29.84 in10.0 miNE (40°)20.7 mphMostly Cloudy
6:35 AM77.0 °F71.6 °F83 %29.85 in10.0 miNE (40°)17.3 mphMostly Cloudy
6:36 AM77.0 °F71.6 °F83 %29.85 in10.0 miNE (40°)18.4 mphMostly Cloudy
6:37 AM77.0 °F71.6 °F83 %29.85 in10.0 miNE (40°)18.4 mphMostly Cloudy
6:46 AM77.0 °F71.6 °F83 %29.86 in10.0 miNE (50°)18.4 mph26.5 mphMostly Cloudy
6:53 AM77.0 °F71.6 °F83 %29.86 in10.0 miNE (40°)19.6 mphLight Drizzle
6:55 AM76.5 °F72.0 °F86 %29.86 in10.0 miNE (40°)17.3 mph0.00 inLight Drizzle
7:06 AM77.0 °F71.6 °F83 %29.86 in10.0 miNE (40°)24.2 mphMostly Cloudy
7:16 AM77.0 °F71.6 °F83 %29.87 in10.0 miNE (50°)20.7 mphMostly Cloudy
7:52 AM77.0 °F71.6 °F83 %29.88 in10.0 miNE (50°)20.7 mphLight Drizzle
7:54 AM77.0 °F71.6 °F83 %29.88 in10.0 miNE (50°)18.4 mphLight Drizzle
7:55 AM76.3 °F72.5 °F88 %29.88 in10.0 miNE (50°)17.3 mph0.00 inLight Drizzle
7:56 AM77.0 °F71.6 °F83 %29.88 in10.0 miNE (50°)17.3 mphLight Drizzle
8:03 AM77.0 °F71.6 °F83 %29.88 in10.0 miNE (50°)18.4 mphMostly Cloudy
8:10 AM77.0 °F71.6 °F83 %29.88 in10.0 miNE (50°)16.1 mphRainLight Rain
8:19 AM77.0 °F71.6 °F83 %29.89 in10.0 miNE (50°)16.1 mphScattered Clouds
8:35 AM78.8 °F71.6 °F78 %29.89 in10.0 miENE (60°)18.4 mphMostly Cloudy
8:39 AM78.8 °F71.6 °F78 %29.89 in10.0 miNE (50°)18.4 mphScattered Clouds
8:48 AM80.6 °F71.6 °F74 %29.89 in10.0 miNE (50°)19.6 mphMostly Cloudy
8:55 AM80.1 °F72.1 °F77 %29.89 in10.0 miNE (50°)21.9 mph0.00 inMostly Cloudy
8:57 AM80.6 °F71.6 °F74 %29.89 in10.0 miNE (50°)20.7 mphMostly Cloudy
9:55 AM80.6 °F72.1 °F75 %29.90 in10.0 miENE (60°)17.3 mphPartly Cloudy
10:55 AM81.9 °F72.0 °F72 %29.89 in10.0 miNE (50°)20.7 mphPartly Cloudy
11:23 AM82.4 °F71.6 °F70 %29.87 in10.0 miNE (50°)21.9 mphMostly Cloudy
11:25 AM82.4 °F71.6 °F70 %29.87 in10.0 miENE (60°)23.0 mphScattered Clouds
11:36 AM82.4 °F71.6 °F70 %29.87 in10.0 miENE (60°)19.6 mphMostly Cloudy
11:50 AM84.2 °F71.6 °F66 %29.86 in10.0 miENE (60°)21.9 mph26.5 mphScattered Clouds
11:55 AM83.7 °F71.8 °F67 %29.86 in10.0 miENE (70°)17.3 mph25.3 mphScattered Clouds
11:57 AM84.2 °F71.6 °F66 %29.86 in10.0 miENE (70°)19.6 mph25.3 mphMostly Cloudy
12:09 PM82.4 °F73.4 °F74 %29.86 in6.0 miEast (80°)25.3 mph31.1 mphRainLight Rain
12:11 PM80.6 °F75.2 °F84 %29.86 in3.0 miEast (80°)24.2 mph31.1 mphRainLight Rain
12:12 PM80.6 °F73.4 °F79 %29.86 in2.5 miEast (80°)21.9 mph31.1 mphRainLight Rain
12:13 PM78.8 °F73.4 °F83 %29.86 in2.0 miEast (80°)20.7 mph31.1 mphRainHeavy Rain
12:15 PM77.0 °F73.4 °F89 %29.86 in1.8 miEast (90°)17.3 mph31.1 mphRainHeavy Rain
12:18 PM77.0 °F73.4 °F89 %29.86 in2.0 miEast (90°)19.6 mph31.1 mphRainLight Rain
12:20 PM77.0 °F75.2 °F94 %29.86 in2.5 miEast (80°)21.9 mph26.5 mphRainLight Rain
12:21 PM77.0 °F75.2 °F94 %29.86 in3.0 miEast (90°)20.7 mph26.5 mphRainLight Rain
12:24 PM77.0 °F73.4 °F89 %29.86 in9.0 miEast (90°)15.0 mph26.5 mphMostly Cloudy
12:27 PM77.0 °F75.2 °F94 %29.86 in10.0 miEast (90°)15.0 mph26.5 mphMostly Cloudy
12:42 PM77.0 °F73.4 °F89 %29.86 in4.0 miEast (80°)13.8 mphRainRain
12:53 PM77.0 °F73.4 °F89 %29.85 in9.0 miEast (80°)15.0 mphOvercast
12:55 PM76.8 °F74.1 °F91 %29.85 in10.0 miEast (80°)16.1 mph0.00 inOvercast
1:07 PM77.0 °F73.4 °F89 %29.84 in10.0 miEast (80°)19.6 mph27.6 mphOvercast
1:17 PM75.2 °F71.6 °F89 %29.84 in10.0 miEast (80°)16.1 mphMostly Cloudy
1:18 PM75.2 °F71.6 °F89 %29.84 in10.0 miEast (80°)15.0 mphMostly Cloudy
1:25 PM77.0 °F73.4 °F89 %29.84 in9.0 miENE (70°)16.1 mphMostly Cloudy
1:28 PM77.0 °F73.4 °F89 %29.84 in9.0 miEast (80°)13.8 mphMostly Cloudy
1:30 PM77.0 °F73.4 °F89 %29.84 in9.0 miENE (70°)13.8 mphMostly Cloudy
1:55 PM79.9 °F73.4 °F80 %29.83 in10.0 miENE (70°)15.0 mphScattered Clouds
2:55 PM80.8 °F71.8 °F74 %29.81 in10.0 miENE (70°)15.0 mph23.0 mphScattered Clouds
2:57 PM80.6 °F71.6 °F74 %29.81 in10.0 miENE (70°)15.0 mph23.0 mphMostly Cloudy
3:06 PM80.6 °F71.6 °F74 %29.80 in10.0 miENE (60°)15.0 mphScattered Clouds
3:55 PM81.0 °F71.6 °F73 %29.79 in10.0 miENE (60°)13.8 mphPartly Cloudy
4:55 PM79.5 °F72.0 °F78 %29.81 in10.0 miNE (50°)17.3 mphScattered Clouds
5:02 PM78.8 °F71.6 °F78 %29.81 in10.0 miENE (60°)18.4 mphMostly Cloudy
5:06 PM78.8 °F71.6 °F78 %29.81 in10.0 miNE (50°)17.3 mphMostly Cloudy
5:07 PM78.8 °F71.6 °F78 %29.81 in10.0 miNE (50°)17.3 mphMostly Cloudy
5:09 PM78.8 °F71.6 °F78 %29.81 in10.0 miNE (50°)18.4 mphMostly Cloudy
5:10 PM78.8 °F71.6 °F78 %29.81 in10.0 miNE (50°)18.4 mphMostly Cloudy
5:11 PM78.8 °F71.6 °F78 %29.81 in10.0 miNE (50°)17.3 mphMostly Cloudy
5:24 PM78.8 °F71.6 °F78 %29.81 in10.0 miENE (60°)17.3 mphMostly Cloudy
5:27 PM78.8 °F71.6 °F78 %29.81 in10.0 miENE (60°)16.1 mphScattered Clouds
5:34 PM78.8 °F71.6 °F78 %29.81 in10.0 miENE (60°)19.6 mphMostly Cloudy
5:43 PM78.8 °F69.8 °F74 %29.82 in10.0 miENE (60°)19.6 mphScattered Clouds
5:55 PM77.7 °F70.5 °F78 %29.82 in10.0 miENE (60°)16.1 mph23.0 mphScattered Clouds
6:10 PM78.8 °F71.6 °F78 %29.82 in10.0 miENE (60°)17.3 mphMostly Cloudy
6:18 PM77.0 °F71.6 °F83 %29.83 in10.0 miENE (70°)27.6 mph34.5 mphMostly Cloudy
6:26 PM75.2 °F71.6 °F89 %29.83 in8.0 miEast (80°)24.2 mph34.5 mphLight Drizzle
6:37 PM73.4 °F71.6 °F94 %29.83 in9.0 miEast (80°)19.6 mph24.2 mphOvercast
6:42 PM73.4 °F69.8 °F88 %29.83 in10.0 miEast (90°)16.1 mph24.2 mphMostly Cloudy
6:50 PM73.4 °F71.6 °F94 %29.83 in10.0 miEast (90°)11.5 mphMostly Cloudy
6:55 PM74.1 °F70.7 °F89 %29.83 in10.0 miENE (70°)15.0 mph0.00 inScattered Clouds
7:55 PM75.9 °F71.1 °F85 %29.84 in10.0 miENE (60°)17.3 mphClear
8:53 PM77.0 °F71.6 °F83 %29.85 in9.0 miENE (60°)26.5 mph35.7 mphMostly Cloudy
8:55 PM77.0 °F71.1 °F82 %29.85 in7.0 miENE (70°)25.3 mph35.7 mphMostly Cloudy
8:58 PM75.2 °F71.6 °F89 %29.86 in6.0 miENE (70°)25.3 mph35.7 mphRainLight Rain
9:14 PM75.2 °F73.4 °F94 %29.86 in10.0 miEast (80°)18.4 mph24.2 mphMostly Cloudy
9:16 PM75.2 °F71.6 °F89 %29.86 in10.0 miENE (70°)18.4 mph24.2 mphMostly Cloudy
9:18 PM75.2 °F71.6 °F89 %29.86 in10.0 miENE (70°)17.3 mph24.2 mphMostly Cloudy
9:23 PM75.2 °F71.6 °F89 %29.86 in10.0 miENE (60°)18.4 mphMostly Cloudy
9:55 PM75.7 °F72.7 °F90 %29.86 in10.0 miENE (60°)15.0 mph0.00 inScattered Clouds
10:01 PM75.2 °F73.4 °F94 %29.86 in9.0 miENE (70°)11.5 mphRainLight Rain
10:03 PM75.2 °F73.4 °F94 %29.87 in9.0 miENE (70°)12.7 mphLight Drizzle
10:11 PM75.2 °F71.6 °F89 %29.87 in10.0 miENE (60°)20.7 mph26.5 mphMostly Cloudy
10:37 PM77.0 °F71.6 °F83 %29.86 in10.0 miENE (60°)19.6 mphScattered Clouds
10:55 PM76.5 °F70.9 °F83 %29.87 in10.0 miENE (60°)18.4 mph25.3 mph0.00 inPartly Cloudy
11:29 PM77.0 °F71.6 °F83 %29.86 in10.0 miENE (60°)24.2 mph34.5 mphMostly Cloudy
11:45 PM75.2 °F69.8 °F83 %29.86 in10.0 miENE (60°)19.6 mphScattered Clouds
11:55 PM75.4 °F71.6 °F88 %29.86 in10.0 miENE (60°)16.1 mphScattered Clouds
Hourly data recorded from PGUA, located miles away from Achang Bay, Guam







STORIES FROM OUR PARTNERS